Regional Weather Roundup
Issued by NWS Jackson, KY

Home | Current Version | Previous Version | Graphics & Text | Print | Product List | Glossary On
Versions: 1 2 3 4 5 6 7 8 9 10 11 12 13 14 15 16 17 18 19 20 21 22 23 24 25 26 27 28
000
ASUS43 KJKL 090510
RWRJKL

EAST KENTUCKY HOURLY WEATHER ROUNDUP
NATIONAL WEATHER SERVICE JACKSON KY
1200 AM EST FRI DEC 09 2016

NOTE: "FAIR" INDICATES FEW OR NO CLOUDS BELOW 12,000 FEET WITH
NO SIGNIFICANT WEATHER AND/OR OBSTRUCTIONS TO VISIBILITY.

* THESE REPORTS ARE NOT UNDER NWS QUALITY CONTROL AND MAY NOT
  REPORT WEATHER SUCH AS PRECIPITATION AND FOG.

KYZ079-080-083-085-087-088-110-112-115-119-120-090600
...EASTERN KENTUCKY...

CITY           SKY/WX    TMP DP  RH WIND       PRES   REMARKS
JACKSON        CLOUDY    25  15  66 VRB7      30.39R WCI  17
LONDON         CLOUDY    26  15  63 NW7       30.42R WCI  18
SOMERSET*      CLOUDY    27  18  69 NW5       30.47R WCI  21
MONTICELLO*    MOCLDY    25  17  72 NW15      30.48R WCI  13
MIDDLESBORO*   PTCLDY    27  15  61 NW5       30.42R WCI  22
HARLAN APT*    PTCLDY    27  16  63 SW7       30.38R WCI  19
PIKE CO APT*   CLOUDY    26  16  64 W12       30.36R WCI  16
BIG SANDY APT* CLOUDY    28  17  64 NW8       30.38  WCI  19
MOREHEAD APT*  CLOUDY    25  12  58 NW12G26   30.44R WCI  14
ASHLAND*       CLOUDY    27  16  63 NW9       30.41R WCI  17
$$

KYZ035-036-041-042-044-050-067-078-099-090600
...CENTRAL KENTUCKY...

CITY           SKY/WX    TMP DP  RH WIND       PRES   REMARKS
MT STERLING*   CLOUDY    25  14  63 NW10      30.45S WCI  15
FLEMING/MASON* CLOUDY    23  11  61 NW15      30.44R WCI  10
DANVILLE*      CLOUDY    25  14  63 NW12      30.47R WCI  14
LEXINGTON      CLOUDY    24  13  62 NW9       30.45R WCI  14
FRANKFORT      CLOUDY    25  14  63 NW7       30.46R WCI  17
LOUISVILLE     FLURRIES  26  12  55 NW13      30.51R WCI  15
LEBANON*       CLOUDY    25  14  63 NW9       30.48R WCI  15
GLASGOW*       MOCLDY    26  16  66 NW6       30.49S WCI  19
BOWLING GREEN  CLOUDY    27  15  61 W7        30.52R WCI  19
$$

KYZ091>093-OHZ055-061-077-WVZ005-015-034-035-042-090600
...SOUTHERN OHIO/WEST VIRGINIA...

CITY           SKY/WX    TMP DP  RH WIND       PRES   REMARKS
COVINGTON      FLURRIES  23  15  71 NW12      30.44R WCI  12
COLUMBUS       FLURRIES  22  14  71 W13       30.36R WCI  10
DAYTON         CLOUDY    20  13  74 W15       30.39S WCI   6
WILMINGTON     LGT SNOW  20  16  84 W12G20    30.39R FOG     WCI   8
HUNTINGTON     CLOUDY    25  13  60 NW8       30.40R WCI  16
CHARLESTON     MOCLDY    25  12  58 NW14G23   30.38R WCI  13
PINEVILLE*       N/A     29  13  51 MISG      30.34R
BECKLEY        CLOUDY    24  13  62 NW14      30.22S WCI  12
BLUEFIELD      CLOUDY    22  11  62 NW14G21   30.22R WCI   9
LOGAN CO APT*  CLOUDY    27  18  69 NW6G14    30.31R WCI  20
$$

VAZ002-007-008-TNZ017-027-036-066-071-090600
...SOUTHWEST VIRGINIA/EAST TENNESSEE...

CITY           SKY/WX    TMP DP  RH WIND       PRES   REMARKS
WISE*          CLOUDY    25  14  63 NW10      30.29S WCI  15
ABINGDON*      CLEAR     28  13  54 NW7       30.30R WCI  20
BRISTOL        PTCLDY    28  13  53 NW9       30.34R WCI  19
MORRISTOWN*    CLEAR     28  14  54 NW9G15    30.37R WCI  20
SEVIERVILLE*   CLEAR     28  16  59 NW6       30.39F WCI  22
KNOXVILLE      PTCLDY    30  18  60 NW3       30.40R
OAK RIDGE      CLEAR     30  14  51 CALM      30.43R
CROSSVILLE     CLEAR     22  13  68 NW7       30.40S WCI  13
NASHVILLE      CLEAR     27  15  61 N10G17    30.53R WCI  17
$$

...KEY TO REMARKS...
VSB - VISIBILITY IN MILES
WCI - WIND CHILL INDEX
HX  - HEAT INDEX

$$




USA.gov is the U.S. government's official web portal to all federal, state and local government web resources and services.